#timestamp,LO_Frequency,Hit,StdDev 
1509505215.4,286046991.6,N
1509505235.3,286046986.0,Y
1509505255.1,286046993.4,P
1509505275.8,286046991.9,P
1509505295.7,286046994.6,P
1509505315.5,286046991.7,Y
1509505335.4,286047002.3,P
1509505355.2,286047004.2,N
1509505375.0,286047005.3,N
1509505375.9,286047005.3,N
1509505395.8,286046999.8,N
1509505415.6,286047000.8,N
1509505435.4,286047002.6,N
1509505455.3,286047000.5,N
1509505475.1,286047002.2,N
1509505476.0,286047002.2,N
1509505495.8,286047007.6,N
1509505515.7,286047009.1,N
1509505535.5,286047005.4,N
1509505555.3,286047004.4,N
1509505575.2,286047001.4,N
1509505595.0,286047003.0,N
1509505595.9,286047003.0,N
1509505615.7,286047007.7,N
1509505635.6,286047009.8,N
1509505655.4,286047009.1,N
1509505675.2,286046999.8,N
1509505695.1,286046999.8,N
1509505696.0,286046999.8,N
1509505715.8,286047004.0,N
1509505735.7,286047001.8,N
1509505755.5,286046999.4,N
1509505775.3,286046996.7,N
1509505795.2,286047002.4,N
1509505815.9,286047002.2,N
1509505835.7,286047007.5,N
1509505855.6,286047006.2,N
1509505875.4,286047007.0,N
1509505895.2,286047004.8,N
1509505915.1,286047007.5,N
1509505916.0,286047007.5,N
1509505935.8,286047005.7,N
1509505955.6,286047008.7,N
1509505975.5,286047008.4,N
1509505995.3,286047008.0,N
1509506015.1,286047006.8,N
1509506035.9,286047008.6,N
1509506055.7,286047009.3,N
1509506075.5,286047010.2,N
1509506095.4,286047011.3,Y
1509506115.2,286047009.9,P
1509506135.0,286047009.6,P
1509506135.9,286047009.6,P
1509506155.8,286047010.7,Y
1509506175.6,286046999.8,P
1509506195.5,286046998.4,N
1509506215.3,286046998.7,N
1509506235.1,286047001.0,N
1509506255.9,286047000.0,N
1509506275.7,286047001.1,N
1509506295.5,286047002.3,N
1509506315.4,286046998.3,N
1509506335.2,286047002.5,N
1509506355.0,286047004.0,N
1509506355.9,286047004.0,N
1509506375.8,286047001.4,N
1509506395.6,286047003.6,N
1509506415.4,286047003.1,N
1509506435.3,286047003.4,N
1509506455.1,286047005.6,N
1509506475.8,286047005.0,N
1509506495.7,286047005.0,N
1509506515.5,286047006.4,N
1509506535.3,286047005.7,N
1509506555.2,286047005.3,N
1509506575.9,286047005.7,N
1509506595.7,286047001.8,N
1509506615.6,286047000.3,N
1509506635.4,286047000.2,N
1509506655.2,286047002.1,N
1509506675.1,286047005.4,N
1509506676.0,286047005.4,N
1509506695.8,286047004.8,N
1509506715.6,286047005.8,N
1509506735.5,286047004.1,N
1509506755.3,286047001.1,N
1509506775.1,286046997.2,N
1509506795.9,286046996.2,N
1509506815.7,286046993.4,N
1509506835.6,286046991.7,N
1509506855.4,286046993.1,N
1509506875.2,286046991.8,N
1509506895.1,286046992.9,N
1509506896.0,286046992.9,N
1509506915.8,286046988.9,N
1509506935.6,286046989.7,N
1509506955.5,286046987.8,N
1509506975.3,286046985.8,N
1509506995.1,286046985.6,N
1509507015.9,286046985.9,N
1509507035.7,286046984.7,N
1509507055.5,286046982.4,N
1509507075.4,286046984.7,N
1509507095.2,286046983.2,N
1509507115.0,286046982.8,N
1509507115.9,286046982.8,N
1509507135.8,286046981.1,N
1509507155.6,286046975.7,Y
1509507175.5,286046980.6,P
1509507195.3,286046982.7,N
1509507215.1,286046985.7,N
1509507235.9,286046985.6,Y
1509507255.7,286047001.7,P
1509507275.5,286047004.2,N
1509507295.4,286047003.9,N
1509507315.2,286047002.4,N
1509507335.0,286047004.4,N
1509507335.9,286047004.4,N
1509507355.8,286047004.2,N
1509507375.6,286047004.4,N
1509507395.4,286046998.4,N
1509507415.3,286046998.0,N
1509507435.1,286046992.3,N
1509507455.8,286046996.0,N
1509507475.7,286046993.4,N
1509507495.5,286046991.2,N
1509507515.3,286046985.3,N
1509507535.2,286046983.7,N
1509507555.0,286046980.8,N
1509507555.9,286046980.8,N
1509507575.8,286046979.1,N
1509507595.6,286046979.2,N
1509507615.4,286046977.6,N
1509507635.3,286046977.2,N
1509507655.1,286046972.9,N
1509507656.0,286046972.9,N
1509507675.8,286046973.6,N
1509507695.7,286046973.5,N
1509507715.5,286046974.9,N
1509507735.3,286046976.4,N
1509507755.2,286046972.9,N
1509507775.9,286046977.0,N
1509507795.7,286046978.7,N
1509507815.6,286046974.6,N
1509507835.4,286046977.1,N
1509507855.2,286046974.3,N
1509507875.1,286046978.5,N
1509507876.0,286046978.5,N
1509507895.8,286046979.0,N
1509507915.6,286046982.2,N
1509507935.5,286046989.4,N
1509507955.3,286046993.9,N
1509507975.1,286046997.7,N
1509507995.9,286046998.0,N
1509508015.7,286046999.3,N
1509508035.5,286047002.4,N
1509508055.4,286047001.5,N
1509508075.2,286047000.0,N
1509508095.0,286046998.6,N
1509508095.9,286046998.6,N
1509508115.8,286047000.2,N
1509508135.6,286047001.7,N
1509508155.4,286047001.4,N
1509508175.3,286047003.8,N
1509508195.1,286047004.6,N
1509508215.9,286047005.7,N
1509508235.7,286047007.0,N
1509508255.5,286047008.2,N
1509508275.3,286047009.4,N
1509508295.2,286047008.4,N
1509508315.0,286047009.5,N
1509508315.9,286047009.5,N
1509508335.8,286047011.8,N
1509508355.6,286047011.2,N
1509508375.4,286047011.1,N
1509508395.3,286047011.5,N
1509508415.1,286047014.5,N
1509508416.0,286047014.5,N
1509508435.8,286047018.1,N
1509508455.7,286047017.7,N
1509508475.5,286047021.6,Y
1509508495.3,286047014.2,P
1509508515.2,286047015.7,P
1509508535.0,286047018.2,P
1509508535.9,286047018.2,Y
1509508555.8,286047005.3,P
1509508575.6,286047004.4,N
1509508595.4,286047004.3,N
1509508615.3,286047004.0,N
1509508635.1,286047003.3,N
1509508636.0,286047003.3,N
1509508655.8,286047001.5,N
1509508675.7,286047002.0,N
1509508695.5,286047002.3,N
1509508715.3,286047000.9,N
1509508735.2,286047000.7,N
1509508755.0,286047000.5,N
1509508755.9,286047000.5,N
1509508775.7,286047002.1,N
1509508795.6,286047001.7,N
